Location: Lewisville
(33.0462°N, 96.9942°W)
Time: 16:58:44
(UTC-06:00)

N. Korean satellite - Pass Details

Date: 27 November 2019
Orbit: 454 x 507 km, 97.2° (Epoch: 24 January)

Event Time Altitude Azimuth Distance (km) Brightness Sun altitude
Rises 06:11:06 0° 12° (NNE) 2,584 10.2 -12.2°
Reaches altitude 10° 06:13:12 10° 13° (NNE) 1,689 9.3 -11.8°
Maximum altitude 06:16:50 80° 99° (E) 497 6.7 -11.1°
Drops below altitude 10° 06:20:23 10° 189° (S) 1,647 9.4 -10.4°
Sets 06:22:24 0° 190° (S) 2,511 10.3 -10.0°
